This is the latest recevied weather packets stored in our database for station/object KH6DH-13. If no packets are shown the sender has not sent any weather packets the latest 10 day(s).
| Time | Temp. | Humidity | Pressure | Rain* | Wind** | Luminosity | Snow |
|---|---|---|---|---|---|---|---|
| 1788393803 | 30.56° C | - | - | 0 mm | 1.34 m/s, 27° | - | - |
| 1788393202 | 30.56° C | - | - | 0 mm | 2.68 m/s, 58° | - | - |
| 1788392601 | 30.56° C | - | - | 0 mm | 3.58 m/s, 73° | - | - |
| 1788392000 | 30.56° C | - | - | 0 mm | 2.24 m/s, 114° | - | - |
| 1788391399 | 30.56° C | - | - | 0 mm | 0.89 m/s, 63° | - | - |
| 1788390798 | 30.56° C | - | - | 0 mm | 1.79 m/s, 25° | - | - |
| 1788390194 | 30.56° C | - | - | 0 mm | 2.24 m/s, 332° | - | - |
| 1788389593 | 30.56° C | - | - | 0 mm | 2.68 m/s, 76° | - | - |
| 1788388992 | 30° C | - | - | 0 mm | 0.89 m/s, 103° | - | - |
| 1788388391 | 30.56° C | - | - | 0 mm | 2.24 m/s, 315° | - | - |
| 1788387790 | 30° C | - | - | 0 mm | 0.89 m/s, 55° | - | - |
| 1788387189 | 28.89° C | - | - | 0 mm | 2.24 m/s, 72° | - | - |
| 1788386588 | 29.44° C | - | - | 0 mm | 2.68 m/s, 96° | - | - |
| 1788386001 | 28.89° C | - | - | 0 mm | 1.79 m/s, 142° | - | - |
| 1788385386 | 28.89° C | - | - | 0 mm | 1.34 m/s, 7° | - | - |
| 1788384782 | 28.89° C | - | - | 0 mm | 2.24 m/s, 356° | - | - |
| 1788384202 | 28.89° C | - | - | 0 mm | 1.79 m/s, 37° | - | - |
| 1788383574 | 28.33° C | - | - | 0 mm | 1.34 m/s, 174° | - | - |
| 1788382971 | 27.78° C | - | - | 0 mm | 4.02 m/s, 214° | - | - |
| 1788382366 | 28.33° C | - | - | 0 mm | 1.79 m/s, 35° | - | - |
| 1788381763 | 27.78° C | - | - | 0 mm | 0.89 m/s, 18° | - | - |
| 1788381159 | 27.22° C | - | - | 0 mm | 1.34 m/s, 51° | - | - |
| 1788380554 | 26.67° C | - | - | 1.27 mm | 2.24 m/s, 134° | - | - |
| 1788379951 | 26.67° C | - | - | 1.27 mm | 1.34 m/s, 3° | - | - |
| 1788379347 | 26.67° C | - | - | 1.27 mm | 3.13 m/s, 145° | - | - |
* Rain latest hour (hover to see other rain measurements)
** Current wind speed in m/s (hover to see current wind gust speed)